COSMOS 1293

Satellite information

Favourite Embed

Satellite Type and Status

PAYLOADIN ORBIT

Key statistics

Satellite COSMOS 1293 at a glance.

Uptime

16158

Days in orbit

Revolutions

≈ 12.6

Per day

Orbit

LEO

Low Earth Orbit

Inclination

74.0

Latest

Satellite identification and parameters

Extended collection of information and parameters for COSMOS 1293.

Object identification

Identified? True

Debris? False

Object name: COSMOS 1293

International designator: 1981-074G

Object number (NORAD): 12642

Object ID (CCSDS): 12642

Country: COMMONWEALTH OF INDEPENDENT STATES (CIS)

Current information (Y/N): Y

RCS size: MEDIUM

Orbital parameters

Period: 114.584 minutes

Inclination: 74.0368 deg

SMA: 7814.67 km

Apoapsis: 1464.901 km

Periapsis: 1408.168 km

RAAN: 9.2028 deg

Eccentricy: 0.0036299

Argument of periapsis: 346.1214 deg

Mean anomaly: 134.423 deg

Mean motion: 12.56715013 rev/day

Mean motion (dot): -0.00000011 rev/day2

B* drag term: 0.000030444 1/REarth

Two-line elements (TLE)

Creation date: Oct. 31, 2025, 10:56 p.m.

Reference frame: TEME

Reference center: EARTH

Epoch: Oct. 31, 2025, 4:28 p.m. UTC

TLE line 0: 0 COSMOS 1293

TLE line 1: 1 12642U 81074G 25304.68626622 -.00000011 00000-0 30444-4 0 9999

TLE line 2: 2 12642 74.0368 9.2028 0036299 346.1214 134.4230 12.56715013 29364

Live tracking on map

Real-time ground track for satellite COSMOS 1293.

In-orbit conjunctions

There are no conjunctions computed for COSMOS 1293, at the moment. Check back to stay up to date, as we update our databases every day.

Go to all conjunctions

Associated space launch

Military communications satellites

COSMOS 1293 was lifted into orbit during the mission ‘Kosmos-3M | Strela-1M 217-224’, on board a Kosmos-3M space rocket.

The launch took place on Aug. 6, 1981, 11:49 a.m. from 132/2.

For more information about the launch, click the button.

Launch to space Kosmos-3M | Strela-1M 217-224
Kosmos-3M | Strela-1M 217-224

Agency: N/A

Status: Launch Successful

Launch date: Aug. 6, 1981, 11:49 a.m. UTC

Rocket: Kosmos-3M

Launch pad: 132/2

Location: Plesetsk Cosmodrome, Russian Federation

...

Latest news about this satellite

There are no fresh news available about this satellite. Check back as we update our databases every day.


Newsletter sign-up

Weekly statistics, charts and insights to help you stay on top of the space industry.